Location: Lomond
(50.3500°N, 112.6333°W)
Time: 16:03:30
(UTC+00:00)

Envisat - Visible Passes

Search period start: 05 June 2023 00:00
Search period end: 15 June 2023 00:00
Orbit: 763 x 765 km, 98.2° (Epoch: 05 June)

Date Brightness Start Highest point End Pass type
(mag) Time Alt. Az. Time Alt. Az. Time Alt. Az.
06 Jun 4.9 10:36:57 10° NE 10:41:21 28° E 10:45:42 10° SSE visible
07 Jun 5.6 10:01:03 10° NE 10:03:45 14° E 10:06:28 10° ESE visible
09 Jun 5.2 10:24:47 10° NE 10:28:48 23° E 10:32:47 10° SE visible
10 Jun 5.8 09:49:41 10° ENE 09:51:08 11° E 09:52:35 10° E visible
12 Jun 5.5 10:12:43 10° NE 10:16:13 18° E 10:19:41 10° SE visible
